Location: Amherst
(42.5000°N, 72.5000°W)
Time: 20:34:23
(UTC-04:00)

ISS - Pass Details

Date: 24 May 2018
Orbit: 402 x 408 km, 51.6° (Epoch: 20 September)

Event Time Altitude Azimuth Distance (km) Brightness Sun altitude
Rises 23:46:53 0° 295° (WNW) 2,320 0.6 -25.3°
Reaches altitude 10° 23:49:32 10° 318° (NW) 1,459 -0.2 -25.4°
Maximum altitude 23:51:42 16° 359° (N) 1,140 -0.7 -25.5°
Drops below altitude 10° 23:53:51 10° 41° (NE) 1,459 -0.6 -25.6°
Enters shadow 23:56:13 - 62° (ENE) 2,220 0.1 -25.7°
